EW7114 Weather Reports


time (UTC)temp
F
wind
direction
speed
knots
gust
knots
rain 1hr
in
rain 24hr
in
rain mn
in
humidity
%
barometer
mb
20260903014600 73 184 4.3 7.8 0.00 0.00 0.00 22 1000.1
20260903014100 74 191 4.3 12.2 0.00 0.00 0.00 22 1000.1
20260903013559 75 203 6.1 16.5 0.00 0.00 0.00 20 1000.2
20260903013105 76 212 9.6 16.5 0.00 0.00 0.00 19 1000.2
20260903012600 76 211 8.7 13.9 0.00 0.00 0.00 19 1000.2
20260903012100 76 222 6.1 9.6 0.00 0.00 0.00 21 1000.2
20260903011606 76 215 3.5 8.7 0.00 0.00 0.00 23 1000.3
20260903011058 77 201 4.3 10.4 0.00 0.00 0.00 22 1000.3
20260903010557 77 192 7.0 17.4 0.00 0.00 0.00 20 1000.3
20260903010111 78 192 9.6 17.4 0.00 0.00 0.00 19 1000.3
20260903005556 78 184 10.4 13.9 0.00 0.00 0.00 20 1000.2
20260903005055 78 135 10.4 16.5 0.00 0.00 0.00 20 1000.1
20260903004559 78 158 9.6 13.9 0.00 0.00 0.00 22 1000.1
20260903004055 79 168 8.7 17.4 0.00 0.00 0.00 22 1000.1
20260903003554 79 148 10.4 17.4 0.00 0.00 0.00 21 1000.1
20260903003056 80 157 12.2 18.2 0.00 0.00 0.00 20 1000.2
20260903002553 81 139 10.4 17.4 0.00 0.00 0.00 20 1000.2
20260903002054 81 168 12.2 20.0 0.00 0.00 0.00 19 1000.3
20260903001553 81 153 14.8 17.4 0.00 0.00 0.00 21 1000.2
20260903001053 82 144 13.0 21.7 0.00 0.00 0.00 19 1000.3
20260903000552 81 153 17.4 21.7 0.00 0.00 0.00 20 1000.2
20260903000053 81 154 13.0 20.9 0.00 0.00 0.00 21 1000.2
20260902235551 81 142 13.9 20.9 0.00 0.00 0.00 20 1000.3
20260902235053 81 182 14.8 20.9 0.00 0.00 0.00 20 1000.3
20260902234548 81 130 13.9 21.7 0.00 0.00 0.00 20 1000.4
20260902234049 81 163 16.5 21.7 0.00 0.00 0.00 20 1000.4
20260902233547 80 169 13.0 25.2 0.00 0.00 0.00 21 1000.5
20260902233047 80 154 14.8 26.1 0.00 0.00 0.00 21 1000.5
20260902232545 79 174 13.0 23.5 0.00 0.00 0.00 22 1000.5
20260902232046 79 129 13.9 20.9 0.00 0.00 0.00 21 1000.5
20260902231550 80 163 13.0 20.0 0.00 0.00 0.00 21 1000.5
20260902231048 81 197 13.0 20.0 0.00 0.00 0.00 21 1000.6
20260902230547 81 158 13.0 22.6 0.00 0.00 0.00 21 1000.6
20260902230044 82 178 15.6 19.1 0.00 0.00 0.00 20 1000.6
20260902225544 80 176 12.2 19.1 0.00 0.00 0.00 22 1000.6
20260902225044 80 176 11.3 22.6 0.00 0.00 0.00 22 1000.6
20260902224543 79 157 14.8 22.6 0.00 0.00 0.00 22 1000.6
20260902224042 80 136 14.8 25.2 0.00 0.00 0.00 22 1000.6
20260902223542 80 157 17.4 25.2 0.00 0.00 0.00 21 1000.6
20260902223041 81 143 15.6 24.3 0.00 0.00 0.00 22 1000.7
20260902222541 80 184 13.0 20.9 0.00 0.00 0.00 21 1000.7
20260902222043 80 170 13.0 20.0 0.00 0.00 0.00 22 1000.9
20260902221539 80 160 14.8 20.9 0.00 0.00 0.00 23 1000.8
20260902221039 81 149 13.0 20.9 0.00 0.00 0.00 22 1001.0
20260902220539 81 148 14.8 21.7 0.00 0.00 0.00 22 1001.0
20260902220040 81 188 13.9 20.0 0.00 0.00 0.00 22 1001.0
20260902215536 82 150 12.2 26.1 0.00 0.00 0.00 22 1001.1
20260902215038 82 151 15.6 27.8 0.00 0.00 0.00 22 1001.1
20260902214538 81 139 9.6 18.2 0.00 0.00 0.00 22 1001.2
20260902214035 81 181 11.3 20.9 0.00 0.00 0.00 22 1001.3
20260902213635 81 201 13.0 20.9 0.00 0.00 0.00 22 1001.4
20260902213033 80 194 13.9 26.9 0.00 0.00 0.00 22 1001.4
20260902212533 80 197 17.4 26.9 0.00 0.00 0.00 23 1001.5
20260902212033 81 169 10.4 17.4 0.00 0.00 0.00 23 1001.3
20260902211532 81 193 10.4 20.9 0.00 0.00 0.00 23 1001.5
20260902211032 82 186 13.9 21.7 0.00 0.00 0.00 22 1001.7
20260902210534 81 204 12.2 19.1 0.00 0.00 0.00 23 1001.5
20260902210036 81 158 12.2 21.7 0.00 0.00 0.00 23 1001.5
20260902205530 81 206 12.2 21.7 0.00 0.00 0.00 24 1001.6
20260902205030 82 195 10.4 20.9 0.00 0.00 0.00 22 1001.5
20260902204539 81 197 13.9 20.9 0.00 0.00 0.00 25 1001.6
20260902204029 80 161 13.0 19.1 0.00 0.00 0.00 23 1001.7
20260902203527 81 174 12.2 20.9 0.00 0.00 0.00 24 1001.7
20260902203027 81 194 12.2 25.2 0.00 0.00 0.00 25 1001.7
20260902202526 81 168 13.9 22.6 0.00 0.00 0.00 26 1001.7
20260902202026 81 201 15.6 20.0 0.00 0.00 0.00 24 1001.8
20260902201530 81 138 12.2 21.7 0.00 0.00 0.00 25 1001.7
20260902201024 80 178 7.8 22.6 0.00 0.00 0.00 25 1001.7
20260902200526 81 176 14.8 22.6 0.00 0.00 0.00 25 1002.0
20260902200024 81 148 13.9 19.1 0.00 0.00 0.00 25 1002.0
20260902195526 81 185 13.0 21.7 0.00 0.00 0.00 25 1002.1
20260902195021 80 194 13.9 21.7 0.00 0.00 0.00 26 1002.1
20260902194521 79 152 15.6 20.9 0.00 0.00 0.00 26 1002.2
20260902194024 79 159 13.9 20.9 0.00 0.00 0.00 27 1002.2
20260902193519 80 180 13.0 19.1 0.00 0.00 0.00 26 1002.3
20260902193019 79 187 10.4 20.0 0.00 0.00 0.00 26 1002.3
20260902192518 80 197 15.6 23.5 0.00 0.00 0.00 26 1002.5
20260902192017 80 167 14.8 23.5 0.00 0.00 0.00 27 1002.6
20260902191520 79 170 14.8 21.7 0.00 0.00 0.00 27 1002.6
20260902191016 79 173 12.2 25.2 0.00 0.00 0.00 27 1002.6
20260902190517 79 154 18.2 25.2 0.00 0.00 0.00 27 1002.5
20260902190016 79 201 12.2 22.6 0.00 0.00 0.00 27 1002.6
20260902185515 79 211 17.4 23.5 0.00 0.00 0.00 28 1002.8
20260902185014 79 195 13.9 23.5 0.00 0.00 0.00 28 1002.8
20260902184513 79 185 14.8 20.9 0.00 0.00 0.00 29 1002.8
20260902184013 79 160 10.4 22.6 0.00 0.00 0.00 27 1002.8
20260902183511 79 182 15.6 22.6 0.00 0.00 0.00 29 1002.9
20260902183010 78 168 9.6 20.9 0.00 0.00 0.00 29 1003.0
20260902182509 78 207 13.0 19.1 0.00 0.00 0.00 30 1003.2
20260902182009 78 190 11.3 20.0 0.00 0.00 0.00 30 1003.2
20260902181509 78 182 10.4 21.7 0.00 0.00 0.00 31 1003.2
20260902181008 78 189 12.2 22.6 0.00 0.00 0.00 31 1003.3
20260902180506 77 208 13.9 26.1 0.00 0.00 0.00 31 1003.4
20260902180007 77 190 17.4 26.1 0.00 0.00 0.00 34 1003.4
20260902175506 77 159 13.9 20.0 0.00 0.00 0.00 34 1003.3
20260902175010 77 161 15.6 25.2 0.00 0.00 0.00 33 1003.4
20260902174505 77 184 17.4 25.2 0.00 0.00 0.00 32 1003.5
20260902174008 77 151 16.5 28.7 0.00 0.00 0.00 34 1003.4
20260902173504 76 159 13.0 28.7 0.00 0.00 0.00 34 1003.4
20260902173005 77 192 11.3 25.2 0.00 0.00 0.00 35 1003.4
20260902172504 76 195 17.4 26.1 0.00 0.00 0.00 33 1003.5
20260902172004 76 198 16.5 26.1 0.00 0.00 0.00 33 1003.4
20260902171502 76 181 13.9 26.9 0.00 0.00 0.00 35 1003.4
20260902171004 76 192 16.5 23.5 0.00 0.00 0.00 34 1003.4
20260902170504 76 174 16.5 23.5 0.00 0.00 0.00 35 1003.4
20260902170002 77 159 15.6 25.2 0.00 0.00 0.00 35 1003.4
20260902165501 76 166 14.8 27.8 0.00 0.00 0.00 36 1003.3
20260902165003 76 201 18.2 27.8 0.00 0.00 0.00 35 1003.4
20260902164607 76 187 19.1 28.7 0.00 0.00 0.00 35 1003.3
20260902164100 75 178 19.1 28.7 0.00 0.00 0.00 36 1003.1
20260902163559 75 184 21.7 28.7 0.00 0.00 0.00 35 1003.1
20260902163059 75 136 16.5 28.7 0.00 0.00 0.00 37 1003.2
20260902162557 75 170 17.4 26.9 0.00 0.00 0.00 39 1003.1
20260902162059 75 179 20.0 26.9 0.00 0.00 0.00 39 1003.2
20260902161602 75 191 16.5 26.1 0.00 0.00 0.00 39 1003.2
20260902161057 75 159 19.1 27.8 0.00 0.00 0.00 38 1003.1
20260902160559 74 172 20.0 25.2 0.00 0.00 0.00 39 1003.3
20260902160054 74 172 19.1 29.5 0.00 0.00 0.00 40 1003.2
20260902155554 74 152 20.0 30.4 0.00 0.00 0.00 40 1003.3
20260902155053 74 144 19.1 26.9 0.00 0.00 0.00 41 1003.3
20260902154609 73 141 19.1 26.9 0.00 0.00 0.00 41 1003.3
20260902154052 73 145 20.0 26.1 0.00 0.00 0.00 41 1003.4
20260902153551 74 157 16.5 26.1 0.00 0.00 0.00 41 1003.5
20260902153051 74 165 18.2 23.5 0.00 0.00 0.00 41 1003.4
20260902152553 73 166 17.4 26.1 0.00 0.00 0.00 41 1003.5
20260902152049 73 152 17.4 26.1 0.00 0.00 0.00 42 1003.6
20260902151552 73 149 19.1 26.1 0.00 0.00 0.00 42 1003.7
20260902151046 72 161 18.2 24.3 0.00 0.00 0.00 44 1003.7
20260902150546 72 138 12.2 20.0 0.00 0.00 0.00 45 1003.6
20260902150046 72 181 13.9 20.9 0.00 0.00 0.00 44 1003.7
20260902145546 72 138 12.2 22.6 0.00 0.00 0.00 44 1003.7
20260902145045 71 145 13.0 21.7 0.00 0.00 0.00 45 1003.6
20260902144549 71 129 14.8 24.3 0.00 0.00 0.00 44 1003.4
20260902144044 71 150 14.8 24.3 0.00 0.00 0.00 44 1003.3
20260902143545 71 164 15.6 24.3 0.00 0.00 0.00 45 1003.3
20260902143043 71 139 11.3 27.8 0.00 0.00 0.00 43 1003.2
20260902142543 71 161 15.6 29.5 0.00 0.00 0.00 43 1003.2
20260902142043 70 151 13.0 23.5 0.00 0.00 0.00 44 1003.2
20260902141540 70 130 13.9 22.6 0.00 0.00 0.00 44 1003.3
20260902141039 69 155 15.6 22.6 0.00 0.00 0.00 45 1003.4
20260902140540 68 127 12.2 25.2 0.00 0.00 0.00 48 1003.4
20260902140041 68 157 13.9 20.9 0.00 0.00 0.00 49 1003.5
20260902135538 68 140 11.3 18.2 0.00 0.00 0.00 48 1003.4
20260902135038 68 142 13.0 20.9 0.00 0.00 0.00 49 1003.4
20260902134538 67 145 14.8 20.9 0.00 0.00 0.00 49 1003.5
20260902134038 66 141 9.6 16.5 0.00 0.00 0.00 52 1003.4
20260902133537 65 126 12.2 16.5 0.00 0.00 0.00 52 1003.4
20260902133040 64 153 11.3 14.8 0.00 0.00 0.00 53 1003.6
20260902132537 64 151 10.4 16.5 0.00 0.00 0.00 52 1003.5
20260902132036 65 174 12.2 16.5 0.00 0.00 0.00 52 1003.5
20260902131541 64 145 11.3 15.6 0.00 0.00 0.00 53 1003.6
20260902131042 65 161 10.4 15.6 0.00 0.00 0.00 52 1003.5
20260902130539 66 167 10.4 17.4 0.00 0.00 0.00 52 1003.5
20260902130136 65 132 9.6 17.4 0.00 0.00 0.00 52 1003.5
20260902125536 65 163 11.3 17.4 0.00 0.00 0.00 52 1003.3
20260902125036 65 133 11.3 19.1 0.00 0.00 0.00 53 1003.4
20260902124536 66 153 10.4 19.1 0.00 0.00 0.00 52 1003.4
20260902124035 65 161 10.4 15.6 0.00 0.00 0.00 53 1003.4
20260902123534 66 183 11.3 15.6 0.00 0.00 0.00 52 1003.5
20260902123035 65 140 11.3 14.8 0.00 0.00 0.00 53 1003.4
20260902122538 66 148 10.4 16.5 0.00 0.00 0.00 52 1003.4
20260902122034 67 157 10.4 16.5 0.00 0.00 0.00 51 1003.4
20260902121533 68 134 12.2 19.1 0.00 0.00 0.00 51 1003.2
20260902121033 68 134 11.3 19.1 0.00 0.00 0.00 50 1003.3
20260902120533 68 126 13.0 22.6 0.00 0.00 0.00 51 1003.3
20260902120134 68 127 15.6 22.6 0.00 0.00 0.00 50 1003.1
20260902115532 67 155 11.3 15.6 0.00 0.00 0.00 51 1003.2
20260902115032 68 149 9.6 14.8 0.00 0.00 0.00 49 1003.3
20260902114532 68 133 9.6 20.0 0.00 0.00 0.00 49 1003.3
20260902114031 69 135 14.8 19.1 0.00 0.00 0.00 49 1003.3
20260902113531 69 147 10.4 22.6 0.00 0.00 0.00 48 1003.3
20260902113032 69 126 11.3 22.6 0.00 0.00 0.00 48 1003.4
20260902112530 69 120 14.8 20.0 0.00 0.00 0.00 48 1003.4
20260902112031 69 152 12.2 26.1 0.00 0.00 0.00 49 1003.5
20260902111529 69 144 12.2 26.1 0.00 0.00 0.00 48 1003.5
20260902111027 68 134 11.3 19.1 0.00 0.00 0.00 50 1003.6
20260902110526 67 144 9.6 23.5 0.00 0.00 0.00 51 1003.5
20260902110026 67 168 14.8 23.5 0.00 0.00 0.00 52 1003.6
20260902105524 65 130 9.6 19.1 0.00 0.00 0.00 52 1003.5
20260902105025 64 138 11.3 19.1 0.00 0.00 0.00 53 1003.6
20260902104524 63 124 5.2 13.0 0.00 0.00 0.00 53 1003.6
20260902104026 64 153 7.0 14.8 0.00 0.00 0.00 53 1003.5
20260902103523 64 128 10.4 14.8 0.00 0.00 0.00 53 1003.6
20260902103036 63 144 10.4 13.0 0.00 0.00 0.00 52 1003.7
20260902102524 63 172 9.6 13.9 0.00 0.00 0.00 53 1003.6
20260902102023 63 142 8.7 14.8 0.00 0.00 0.00 52 1003.6
20260902101538 63 149 9.6 15.6 0.00 0.00 0.00 52 1003.6
20260902101026 63 140 10.4 18.2 0.00 0.00 0.00 52 1003.6
20260902100522 63 164 10.4 19.1 0.00 0.00 0.00 53 1003.7
20260902100022 62 185 9.6 14.8 0.00 0.00 0.00 53 1003.7
20260902095521 60 153 7.8 13.9 0.00 0.00 0.00 52 1003.7
20260902095020 60 157 6.1 12.2 0.00 0.00 0.00 53 1003.7
20260902094520 61 157 7.8 14.8 0.00 0.00 0.00 53 1003.7
20260902094019 60 126 10.4 13.9 0.00 0.00 0.00 52 1003.7
20260902093519 60 155 9.6 13.0 0.00 0.00 0.00 53 1003.7
20260902093018 61 157 8.7 15.6 0.00 0.00 0.00 53 1003.8
20260902092517 62 159 10.4 16.5 0.00 0.00 0.00 53 1003.7
20260902092018 61 145 10.4 16.5 0.00 0.00 0.00 52 1003.8
20260902091516 60 143 10.4 13.9 0.00 0.00 0.00 52 1003.8
20260902091014 60 166 7.8 13.0 0.00 0.00 0.00 53 1003.8
20260902090513 61 146 9.6 13.9 0.00 0.00 0.00 53 1003.7
20260902090012 62 166 10.4 13.9 0.00 0.00 0.00 53 1003.8
20260902085511 63 136 8.7 13.9 0.00 0.00 0.00 53 1003.9
20260902085011 65 125 7.0 13.9 0.00 0.00 0.00 51 1003.8
20260902084510 67 154 8.7 13.0 0.00 0.00 0.00 49 1003.8
20260902084010 67 146 7.8 14.8 0.00 0.00 0.00 49 1003.8
20260902083509 65 137 12.2 14.8 0.00 0.00 0.00 52 1003.8
20260902083008 62 127 8.7 12.2 0.00 0.00 0.00 53 1003.8
20260902082508 63 128 9.6 15.6 0.00 0.00 0.00 53 1003.9
20260902082008 64 125 10.4 15.6 0.00 0.00 0.00 53 1003.9
20260902081508 65 127 9.6 16.5 0.00 0.00 0.00 53 1003.9
20260902081007 65 120 12.2 16.5 0.00 0.00 0.00 53 1003.9
20260902080515 64 112 11.3 15.6 0.00 0.00 0.00 53 1004.0
20260902080006 65 132 10.4 13.0 0.00 0.00 0.00 53 1004.0
20260902075505 65 132 9.6 13.9 0.00 0.00 0.00 52 1003.9
20260902075005 66 130 10.4 16.5 0.00 0.00 0.00 52 1003.9
20260902074505 66 117 12.2 16.5 0.00 0.00 0.00 52 1003.9
20260902074105 66 123 12.2 14.8 0.00 0.00 0.00 52 1003.9
20260902073504 66 128 9.6 12.2 0.00 0.00 0.00 52 1003.8
20260902073003 67 146 8.7 15.6 0.00 0.00 0.00 51 1003.9
20260902072502 67 132 12.2 15.6 0.00 0.00 0.00 50 1003.9
20260902072001 67 124 12.2 15.6 0.00 0.00 0.00 51 1003.8
20260902071502 67 124 10.4 15.6 0.00 0.00 0.00 51 1003.8
20260902071003 67 120 10.4 17.4 0.00 0.00 0.00 51 1003.8
20260902070600 67 142 12.2 17.4 0.00 0.00 0.00 51 1003.7
20260902065558 66 118 13.0 18.2 0.00 0.00 0.00 51 1003.8
20260902065058 66 138 12.2 17.4 0.00 0.00 0.00 52 1003.8
20260902064617 66 120 11.3 14.8 0.00 0.00 0.00 52 1003.7
20260902064056 66 116 12.2 16.5 0.00 0.00 0.00 52 1003.8
20260902063554 66 130 12.2 16.5 0.00 0.00 0.00 52 1003.8
20260902063056 65 128 9.6 13.9 0.00 0.00 0.00 52 1003.8
20260902062554 64 123 10.4 13.9 0.00 0.00 0.00 53 1003.9
20260902062051 62 135 8.7 12.2 0.00 0.00 0.00 53 1003.9
20260902061553 62 122 8.7 12.2 0.00 0.00 0.00 53 1003.9
20260902061049 62 130 7.8 11.3 0.00 0.00 0.00 53 1003.9
20260902060550 64 130 7.0 13.0 0.00 0.00 0.00 52 1003.9
20260902060051 65 121 8.7 13.0 0.00 0.00 0.00 51 1004.0
20260902055545 65 120 9.6 13.9 0.00 0.00 0.00 51 1004.0
20260902055043 65 118 10.4 14.8 0.00 0.00 0.00 51 1004.0
20260902054543 65 122 12.2 14.8 0.00 0.00 0.00 50 1004.0
20260902054041 66 119 9.6 13.9 0.00 0.00 0.00 49 1004.1
20260902053539 66 115 10.4 13.9 0.00 0.00 0.00 49 1004.1
20260902053038 66 120 10.4 13.0 0.00 0.00 0.00 49 1004.1
20260902052541 67 109 10.4 13.0 0.00 0.00 0.00 48 1004.1
20260902052034 67 122 7.8 13.0 0.00 0.00 0.00 49 1004.1
20260902051533 67 130 8.7 13.9 0.00 0.00 0.00 48 1004.1
20260902051032 67 109 8.7 14.8 0.00 0.00 0.00 49 1004.1
20260902050533 67 100 9.6 14.8 0.00 0.00 0.00 48 1004.1
20260902050029 68 115 9.6 13.9 0.00 0.00 0.00 48 1004.0
20260902045527 68 116 8.7 15.6 0.00 0.00 0.00 48 1004.0
20260902045026 69 121 11.3 15.6 0.00 0.00 0.00 47 1004.1
20260902044526 68 120 8.7 13.9 0.00 0.00 0.00 48 1004.1
20260902044026 69 103 9.6 14.8 0.00 0.00 0.00 47 1004.0
20260902043526 67 132 9.6 14.8 0.00 0.00 0.00 49 1004.1
20260902043025 67 129 8.7 11.3 0.00 0.00 0.00 50 1004.1
20260902042526 68 116 6.1 13.0 0.00 0.00 0.00 50 1004.1
20260902042026 67 109 8.7 13.0 0.00 0.00 0.00 51 1004.1
20260902041524 65 117 7.0 8.7 0.00 0.00 0.00 53 1004.0
20260902041026 65 164 4.3 8.7 0.00 0.00 0.00 53 1004.0
20260902040520 65 118 6.1 9.6 0.00 0.00 0.00 53 1004.1
20260902040020 65 120 7.8 9.6 0.00 0.00 0.00 52 1004.2
20260902035518 65 120 6.1 8.7 0.00 0.00 0.00 52 1004.1
20260902035017 65 125 6.1 8.7 0.00 0.00 0.00 52 1004.0
20260902034516 66 118 7.0 10.4 0.00 0.00 0.00 52 1004.0
20260902034014 66 128 7.0 10.4 0.00 0.00 0.00 52 1003.9
20260902033512 66 110 7.0 9.6 0.00 0.00 0.00 52 1003.9
20260902033011 66 124 6.1 8.7 0.00 0.00 0.00 52 1003.8
20260902032509 65 120 5.2 7.8 0.00 0.00 0.00 52 1003.8
20260902032007 65 157 4.3 6.1 0.00 0.00 0.00 52 1003.7
20260902031506 65 147 4.3 7.0 0.00 0.00 0.00 52 1003.6
20260902031005 66 129 4.3 7.8 0.00 0.00 0.00 52 1003.5
20260902030503 66 118 5.2 7.8 0.00 0.00 0.00 51 1003.5
20260902030002 66 140 4.3 7.0 0.00 0.00 0.00 51 1003.4
20260902025502 66 134 4.3 6.1 0.00 0.00 0.00 51 1003.3
20260902025102 66 161 4.3 5.2 0.00 0.00 0.00 52 1003.3
20260902024609 68 172 3.5 7.0 0.00 0.00 0.00 52 1003.2
20260902024059 69 151 3.5 7.8 0.00 0.00 0.00 52 1003.0
20260902023555 69 145 4.3 7.8 0.00 0.00 0.00 52 1003.1
20260902023101 70 146 4.3 7.0 0.00 0.00 0.00 52 1003.0
20260902022553 70 157 5.2 8.7 0.00 0.00 0.00 51 1003.0
20260902022055 71 136 7.0 10.4 0.00 0.00 0.00 50 1003.0
20260902021554 71 147 7.0 10.4 0.00 0.00 0.00 50 1003.0
20260902021048 72 136 7.0 9.6 0.00 0.00 0.00 49 1003.1
20260902020547 73 172 7.8 9.6 0.00 0.00 0.00 49 1003.1
20260902020045 74 145 8.7 13.9 0.00 0.00 0.00 48 1003.1
20260902015543 74 146 9.6 14.8 0.00 0.00 0.00 47 1003.1
20260902015044 75 143 11.3 14.8 0.00 0.00 0.00 47 1003.2